Weather History for Jackson Hawkins Field, MS

Change the Weather History Date:

Friday, March 29, 2013

  Actual Average (KJAN) Record (KJAN)
Temperature  
Mean Temperature 60 °F 60 °F  
Max Temperature 75 °F 72 °F 88 °F (1974)
Min Temperature 46 °F 48 °F 30 °F (1930)
Degree Days  
Heating Degree Days 4 6  
Month to date heating degree days 266  
Since 1 July heating degree days 2258  
Cooling Degree Days 0 1  
Month to date cooling degree days 26  
Year to date cooling degree days 36  
Growing Degree Days 10 (Base 50)    
Moisture  
Dew Point 42 °F    
Average Humidity 54    
Maximum Humidity 80    
Minimum Humidity 27    
Precipitation  
Precipitation 0.00 in 0.17 in 3.83 in (1991)
Month to date precipitation 4.69  
Year to date precipitation 14.42  
Sea Level Pressure  
Sea Level Pressure 30.21 in    
Wind  
Wind Speed 4 mph (SSW)    
Max Wind Speed 12 mph    
Max Gust Speed 17 mph    
Visibility 10 miles    
Events      
T = Trace of Precipitation, MM = Missing Value Source: NWS Daily Summary

Daily Weather History Graph

Daily Weather History Graph

Search for Another Location

Airport:

Trip Planner

Search our weather history database for the weather conditions in past years. The results will help you decide how hot, cold, wet, or windy it might be!

Date:

Astronomy

Mar. 29, 2013 Rise Set
Actual Time 6:52 AM CDT 7:18 PM CDT
Civil Twilight 6:28 AM CDT 7:43 PM CDT
Nautical Twilight 5:59 AM CDT 8:12 PM CDT
Astronomical Twilight 5:29 AM CDT 8:41 PM CDT
Moon 10:07 PM CDT (3/29) 8:11 AM CDT (3/29)
Length of Visible Light 13h 15m
Length of Day
12h 26m
Waning Gibbous, 93% of the Moon is Illuminated
Mar 29
Waning Gibbous
Apr 2
Last Quarter
Apr 10
New
Apr 18
First Quarter
Apr 25
Full

Hourly Weather History & Observations

Time (CDT) Temp. Dew Point Humidity Pressure Visibility Wind Dir Wind Speed Gust Speed Precip Events Conditions
12:53 AM 50.0 °F 37.9 °F 63% 30.26 in 10.0 mi ESE 3.5 mph - N/A   Clear
1:53 AM 51.1 °F 37.9 °F 61% 30.26 in 10.0 mi ESE 3.5 mph - N/A   Clear
2:53 AM 50.0 °F 37.9 °F 63% 30.26 in 10.0 mi SE 3.5 mph - N/A   Clear
3:53 AM 48.9 °F 39.0 °F 69% 30.24 in 10.0 mi South 3.5 mph - N/A   Clear
4:53 AM 48.0 °F 39.9 °F 74% 30.24 in 10.0 mi Calm Calm - N/A   Clear
5:53 AM 46.9 °F 39.9 °F 77% 30.25 in 10.0 mi SSE 3.5 mph - N/A   Clear
6:53 AM 46.9 °F 41.0 °F 80% 30.26 in 10.0 mi SE 4.6 mph - N/A   Clear
7:53 AM 50.0 °F 43.0 °F 77% 30.28 in 10.0 mi Calm Calm - N/A   Clear
8:53 AM 55.9 °F 45.0 °F 67% 30.28 in 10.0 mi South 4.6 mph - N/A   Clear
9:53 AM 63.0 °F 42.1 °F 46% 30.27 in 10.0 mi SW 8.1 mph - N/A   Clear
10:53 AM 68.0 °F 41.0 °F 37% 30.25 in 10.0 mi South 10.4 mph - N/A   Clear
11:53 AM 70.0 °F 41.0 °F 35% 30.25 in 10.0 mi SSW 10.4 mph - N/A   Overcast
12:53 PM 72.0 °F 37.9 °F 29% 30.22 in 10.0 mi SW 9.2 mph 16.1 mph N/A   Overcast
1:53 PM 75.0 °F 39.0 °F 27% 30.20 in 10.0 mi WSW 11.5 mph 17.3 mph N/A   Overcast
2:53 PM 73.0 °F 39.0 °F 29% 30.17 in 10.0 mi WSW 6.9 mph - N/A   Overcast
3:53 PM 73.9 °F 39.0 °F 28% 30.16 in 10.0 mi West 3.5 mph - N/A   Overcast
4:53 PM 73.0 °F 39.0 °F 29% 30.15 in 10.0 mi West 3.5 mph - N/A   Overcast
5:53 PM 73.0 °F 41.0 °F 31% 30.15 in 10.0 mi South 5.8 mph - N/A   Mostly Cloudy
6:53 PM 69.1 °F 45.0 °F 42% 30.15 in 10.0 mi NNW 4.6 mph - N/A   Overcast
7:53 PM 66.0 °F 46.9 °F 50% 30.15 in 9.0 mi NW 3.5 mph - N/A   Mostly Cloudy
8:53 PM 61.0 °F 48.0 °F 62% 30.16 in 10.0 mi Calm Calm - N/A   Clear
9:53 PM 57.9 °F 48.0 °F 70% 30.16 in 10.0 mi Calm Calm - N/A   Clear
10:53 PM 57.9 °F 48.9 °F 72% 30.15 in 10.0 mi Calm Calm - N/A   Clear
11:53 PM 55.9 °F 46.9 °F 72% 30.15 in 10.0 mi South 5.8 mph - N/A   Clear